RH
81 72 61 52 59 80 54 34 30 39 50 54 43 39 32 25 20 32 72 80 90 80 74 83 91 94 100
84 76 64 53 43 36 33 36 45 48 45 36 31 28 25 40 45 89 99 98 90 95 88 91 100 99 97
80 69 62 47 42 44 45 39 34 51 63 74 84 85 100 100 99 98 98 100 99 89 100 99 99 98 98
39 44 50 47 41 36 31 26 45 100 99 96 96 95 96 92 94 89 78 72 83 94 91 88 95 96 98
32 32 32 32 35 73 73 93 100 99 94 55 27 24 24 26 27 28 29 28 28 30 31 34 45 56 81
63 62 66 70 85 96 65 50 36 24 23 23 22 20 19 19 19 20 22 21 22 22 21 21 22 24 27
24 28 27 26 30 23 20 19 20 21 26 32 31 29 26 24 21 19 18 19 20 20 20 20 20 24 27
31 31 31 32 34 36 37 34 26 20 24 43 55 64 71 66 58 57 59 55 52 48 40 36 35 33 31
29 27 26 24 23 23 27 34 37 40 48 58 67 57 24 19 16 14 13 11 11 10 10 13 18 27 35
52 52 59 68 76 80 86 88 81 70 46 17 14 15 12 11 10 9 7 7 6 7 7 8 9 9 9
98 98 92 86 84 76 58 32 15 16 18 16 12 11 9 7 18 18 24 31 29 28 28 30 33 29 25
86 81 76 65 34 20 19 20 20 16 14 12 9 8 13 20 28 40 41 39 40 47 52 56 55 54 51
80 60 38 29 26 24 22 21 16 13 12 9 12 25 28 31 36 45 48 58 60 59 66 74 77 86 87
55 38 29 30 27 22 20 17 15 11 10 12 28 32 38 43 47 55 59 62 69 70 75 74 77 88 90
47 38 32 34 26 18 16 14 12 14 21 33 43 47 46 48 54 56 53 40 27 19 20 21 14 19 33
47 41 31 25 21 19 16 15 19 25 36 48 62 66 60 52 48 51 44 24 11 7 6 6 6 8 10
46 36 22 20 24 19 18 24 37 44 50 55 64 65 66 63 50 38 29 20 8 7 6 7 8 9 22
Wind_Speed
53 53 48 55 60 65 58 58 51 49 49 50 51 52 53 52 49 48 47 50 53 49 49 50 48 47 47
41 49 47 42 42 44 46 46 44 44 46 46 46 48 52 52 53 49 46 49 49 48 53 55 56 53 55
36 37 39 41 42 42 43 42 41 36 39 40 42 41 41 45 46 48 45 49 53 56 53 55 53 57 55
30 32 35 37 40 41 42 41 34 36 39 38 33 32 38 38 37 38 40 42 41 41 40 41 44 43 44
26 30 33 36 40 36 38 38 37 44 36 40 42 44 45 46 47 49 50 51 52 52 53 53 54 56 55
15 18 22 24 26 33 33 37 40 42 45 48 49 50 52 53 54 55 56 57 57 59 59 61 61 63 63
28 30 32 34 36 39 42 44 46 48 49 51 53 55 57 58 59 60 61 62 63 64 64 65 66 67 68
33 34 36 38 40 42 45 46 47 48 50 52 56 60 64 66 67 69 70 71 72 73 73 74 75 76 76
35 36 37 39 42 44 47 49 51 54 57 60 63 61 65 69 71 73 75 77 79 81 83 85 86 86 86
39 40 42 44 46 49 51 52 52 53 54 57 60 63 65 67 72 76 78 81 84 87 89 91 93 93 91
41 42 43 44 43 44 46 49 51 53 56 59 62 65 69 70 54 55 54 55 56 56 56 55 53 58 62
38 39 40 43 45 46 47 48 51 55 58 60 63 61 55 50 49 50 50 48 49 47 47 48 48 46 46
37 39 41 44 46 48 49 51 54 54 57 56 52 50 49 46 44 46 45 48 47 45 45 44 42 41 41
39 41 42 44 47 49 51 53 54 54 53 48 45 43 44 44 42 43 44 43 42 41 39 39 35 33 32
41 42 43 46 48 48 49 50 50 47 46 44 42 41 41 41 41 40 39 38 37 33 33 32 28 25 24
42 43 45 47 47 47 46 45 44 43 41 40 40 40 40 40 38 37 36 35 33 30 26 25 23 16 16
43 44 45 46 46 45 44 41 39 40 39 38 38 39 39 38 37 35 34 32 28 25 21 18 17 14 9
Wind_Direction
262 262 266 267 274 279 287 287 287 286 282 279 273 268 266 266 269 267 270 272 270 276 277 267 271 272 271
265 263 270 276 278 278 279 279 281 281 280 278 277 272 271 271 264 267 266 272 273 276 281 270 265 269 268
262 262 265 270 273 276 280 282 278 274 271 272 268 266 268 262 263 263 273 274 272 276 274 265 263 262 259
265 265 267 270 275 277 278 280 274 270 260 262 264 265 267 275 280 280 282 281 279 278 274 273 273 269 268
277 277 277 278 279 283 277 278 274 268 278 282 282 281 280 280 279 279 277 276 275 274 274 272 271 270 269
271 272 278 286 274 274 278 278 279 281 283 283 283 282 283 282 281 280 278 277 276 275 273 272 270 269 268
282 280 280 280 280 281 282 282 283 284 285 287 288 289 287 285 283 282 281 279 278 277 276 276 274 272 269
288 287 286 286 286 286 285 285 286 287 288 290 292 292 291 289 287 286 284 283 282 280 277 275 274 272 270
291 291 291 291 291 291 291 292 293 293 293 294 293 292 292 290 287 285 283 281 279 277 275 273 271 270 269
290 290 291 292 293 294 293 292 291 291 292 293 294 292 293 294 291 288 287 285 282 279 276 274 271 269 267
293 294 294 294 294 294 295 295 297 297 297 294 296 296 296 294 296 294 292 293 291 290 288 284 281 276 271
297 297 298 298 297 296 296 296 298 299 301 301 301 301 299 297 298 298 299 295 294 292 289 286 283 282 278
297 297 299 299 299 299 299 299 300 301 304 304 303 299 300 301 301 300 299 298 296 294 293 290 287 284 281
296 299 300 301 301 302 301 303 304 306 305 304 302 300 302 304 305 305 303 301 298 296 293 290 290 285 282
299 301 301 302 301 302 306 306 306 307 305 305 307 306 305 305 307 308 304 303 303 300 297 295 294 287 286
300 301 301 302 302 303 305 305 306 306 304 306 307 308 308 308 308 310 306 306 305 303 300 298 300 293 287
300 302 301 302 302 304 304 304 305 306 306 305 306 307 309 309 310 312 308 307 304 301 298 293 291 288 272